Regional Weather Roundup
Issued by NWS

Home | Current Version | Previous Version | Graphics & Text | Print | Product List | Glossary On
Versions: 1 2 3 4 5 6 7 8 9 10 11 12 13 14 15 16 17 18 19 20 21 22 23 24 25 26 27 28 29 30 31 32 33 34 35 36 37 38 39 40 41 42 43 44 45 46 47 48 49 50
000
ASUS43 KFSD 191002
RWRSD

WEATHER ROUNDUP FOR SOUTH DAKOTA
NATIONAL WEATHER SERVICE SIOUX FALLS SD
500 AM CDT FRI SEP 19 2014

NOTE: "FAIR" INDICATES FEW OR NO CLOUDS BELOW 12,000 FEET WITH NO
SIGNIFICANT WEATHER AND/OR OBSTRUCTIONS TO VISIBILITY.


SDZ001>005-009-010-012>017-191100-
NORTHWEST AND NORTH CENTRAL SOUTH DAKOTA

CITY           SKY/WX    TMP DP  RH WIND       PRES   REMARKS
FAITH            N/A     61  60  97 W8        29.73R
MOBRIDGE       CLOUDY    64  63  96 SW13      29.67R
$$

SDZ012>016-024>037-041>051-057-063-072>074-191100-
SOUTHWEST AND SOUTH CENTRAL SOUTH DAKOTA

CITY           SKY/WX    TMP DP  RH WIND       PRES   REMARKS
RAPID CTY ARPT MOCLDY    69  51  52 N14       29.78S
PIERRE         CLOUDY    65  60  84 SE13      29.66F
CUSTER         CLOUDY    62  46  55 N6        29.91S
ELLSWORTH AFB  MOCLDY    70  52  52 N12       29.78S
PHILIP         CLOUDY    64  60  87 W7        29.70R
PINE RIDGE     PTCLDY    59  57  93 S7        29.79S
WINNER         FAIR      68  63  84 S18G31    29.70S
$$

SDZ004>011-016>023-039-040-191100-
NORTHEAST SOUTH DAKOTA

CITY           SKY/WX    TMP DP  RH WIND       PRES   REMARKS
ABERDEEN       CLOUDY    63  59  87 S14       29.74F
WATERTOWN      CLOUDY    61  56  83 S18G25    29.78F
$$

SDZ017-020-022-023-036>040-048>070-191100-
SOUTHEAST SOUTH DAKOTA

CITY           SKY/WX    TMP DP  RH WIND       PRES   REMARKS
SIOUX FALLS    CLOUDY    62  58  86 S15       29.85S
HURON          CLOUDY    62  57  83 S13       29.77R
CHAMBERLAIN    MOCLDY    64  62  94 SE6       29.74R
MITCHELL       CLOUDY    62  60  93 SE16      29.78F
YANKTON        CLOUDY    63  61  94 S13       29.83S
$$

ABBREVIATIONS USED IN REMARKS
   TC - TEMPERATURE IN CELSIUS
  WCI - WIND CHILL INDEX
   HX - HEAT INDEX
  VSB - VISIBILITY




USA.gov is the U.S. government's official web portal to all federal, state and local government web resources and services.